Anita, PA

1:35 PM EDT on September 29, 2016 (GMT -0400)
Du Bois-Jefferson County

Weather History for KDUJ - September, 2013

Change the Weather History Date:

Wednesday, September 18, 2013

  Actual Average Record
Temperature  
Mean Temperature 57 °F 59 °F  
Max Temperature 71 °F 69 °F 84 °F (1965)
Min Temperature 43 °F 49 °F 33 °F (1990)
Degree Days  
Heating Degree Days 8 7  
Month to date heating degree days 92 75  
Since 1 July heating degree days 130 137  
Cooling Degree Days 0 1  
Month to date cooling degree days 36 25  
Year to date cooling degree days 522 356  
Growing Degree Days 7 (Base 50)    
Moisture  
Dew Point 42 °F    
Average Humidity 61    
Maximum Humidity 77    
Minimum Humidity 44    
Precipitation  
Precipitation 0.00 in 0.12 in 2.11 in (1978)
Month to date precipitation 0.61 2.27  
Sea Level Pressure  
Sea Level Pressure 30.23 in    
Wind  
Wind Speed 5 mph (SE)    
Max Wind Speed 8 mph    
Max Gust Speed 15 mph    
Visibility 10 miles    
Events      
T = Trace of Precipitation, MM = Missing Value Source: NWS Daily Summary

Daily Weather History Graph

Daily Weather History Graph

Search for Another Location

Airport or City:

Trip Planner

Search our weather history database for the weather conditions in past years. The results will help you decide how hot, cold, wet, or windy it might be!

Date:

Astronomy

Sep. 18, 2013 Rise Set
Actual Time 6:59 AM EDT 7:19 PM EDT
Civil Twilight 6:31 AM EDT 7:46 PM EDT
Nautical Twilight 5:59 AM EDT 8:19 PM EDT
Astronomical Twilight 5:26 AM EDT 8:52 PM EDT
Moon 6:41 PM EDT (9/18) 5:59 AM EDT (9/18)
Length of Visible Light 13h 15m
Length of Day
12h 19m
Waxing Gibbous, 99% of the Moon is Illuminated
Sep 18
Waxing Gibbous
Sep 19
Full
Sep 26
Last Quarter
Oct 4
New
Oct 11
First Quarter

Hourly Weather History & Observations

Time (EDT) Temp. Windchill Dew Point Humidity Pressure Visibility Wind Dir Wind Speed Gust Speed Precip Events Conditions
12:56 AM 45.0 °F 41.8 °F 37.9 °F 76% 30.31 in 10.0 mi East 5.8 mph - N/A   Clear
1:56 AM 46.9 °F - 36.0 °F 66% 30.29 in 10.0 mi ESE 5.8 mph - N/A   Clear
2:56 AM 46.0 °F 43.1 °F 36.0 °F 68% 30.29 in 10.0 mi ESE 5.8 mph - N/A   Clear
3:56 AM 45.0 °F 41.8 °F 36.0 °F 71% 30.28 in 10.0 mi ESE 5.8 mph - N/A   Clear
4:56 AM 45.0 °F 42.6 °F 36.0 °F 71% 30.27 in 10.0 mi ESE 4.6 mph - N/A   Clear
5:56 AM 45.0 °F 40.6 °F 36.0 °F 71% 30.27 in 10.0 mi ESE 8.1 mph - N/A   Clear
6:56 AM 44.1 °F 40.1 °F 36.0 °F 73% 30.28 in 10.0 mi East 6.9 mph - N/A   Clear
7:56 AM 46.0 °F 43.1 °F 37.9 °F 73% 30.29 in 10.0 mi East 5.8 mph - N/A   Clear
8:56 AM 51.1 °F - 39.9 °F 66% 30.28 in 10.0 mi ESE 4.6 mph - N/A   Clear
9:56 AM 55.9 °F - 42.1 °F 60% 30.28 in 10.0 mi South 3.5 mph - N/A   Clear
10:56 AM 60.1 °F - 45.0 °F 57% 30.27 in 10.0 mi SSE 4.6 mph - N/A   Clear
11:56 AM 64.9 °F - 46.9 °F 52% 30.25 in 10.0 mi SW 3.5 mph - N/A   Clear
12:56 PM 68.0 °F - 48.0 °F 49% 30.23 in 10.0 mi Variable 5.8 mph - N/A   Clear
1:56 PM 70.0 °F - 46.9 °F 44% 30.21 in 10.0 mi SSW 6.9 mph - N/A   Clear
2:56 PM 69.1 °F - 46.9 °F 45% 30.19 in 10.0 mi Variable 4.6 mph - N/A   Clear
3:56 PM 68.0 °F - 48.0 °F 49% 30.18 in 10.0 mi South 4.6 mph - N/A   Clear
4:56 PM 69.1 °F - 48.9 °F 49% 30.16 in 10.0 mi East 4.6 mph - N/A   Clear
5:56 PM 69.1 °F - 48.0 °F 47% 30.15 in 10.0 mi ESE 4.6 mph - N/A   Clear
6:56 PM 63.0 °F - 45.0 °F 52% 30.16 in 10.0 mi ESE 4.6 mph - N/A   Clear
7:56 PM 61.0 °F - 43.0 °F 52% 30.16 in 10.0 mi SE 4.6 mph - N/A   Clear
8:56 PM 60.1 °F - 43.0 °F 53% 30.17 in 10.0 mi SSE 4.6 mph - N/A   Clear
9:56 PM 57.0 °F - 43.0 °F 59% 30.17 in 10.0 mi SE 4.6 mph - N/A   Clear
10:56 PM 53.1 °F - 44.1 °F 71% 30.17 in 10.0 mi SE 5.8 mph - N/A   Clear
11:56 PM 52.0 °F - 44.1 °F 74% 30.17 in 10.0 mi ESE 5.8 mph - N/A   Clear